Stations météo

réclame
Mon MeteoGroup
Aguilas, Espagne (8432): Température de l'air & dewpoint: 17.09.2018 03:00:00 - 23.09.2018 03:00:00 (CEST)Aguilas, Espagne (8432): Vitesse du vent & gusts: 17.09.2018 03:00:00 - 23.09.2018 03:00:00 (CEST)Aguilas, Espagne (8432): Direction du vent: 17.09.2018 03:00:00 - 23.09.2018 03:00:00 (CEST)Aguilas, Espagne (8432): reduced air pressure: 17.09.2018 03:00:00 - 23.09.2018 03:00:00 (CEST)Aguilas, Espagne (8432): visibility: 17.09.2018 03:00:00 - 23.09.2018 03:00:00 (CEST)Aguilas, Espagne (8432): Ensoleillement: 17.09.2018 03:00:00 - 23.09.2018 03:00:00 (CEST)Aguilas, Espagne (8432): Quantités de précipitations: 17.09.2018 03:00:00 - 23.09.2018 03:00:00 (CEST)
Date & Time tt [°C] td [°C] ff [km/h] ff [knt] fx [km/h] fx [knt] dd ppp [hPa] vv [km] sd [min] rr [mm]
23.09.2018 03:00:00 - - - - - - - - - - -
23.09.2018 02:00:00 22,7 13,2 2 1 7 4 NE 1022,3 20 0 -
23.09.2018 01:00:00 23,2 14,5 4 2 8 5 NNE 1022,3 20 0 0,0
23.09.2018 00:00:00 23,4 14,4 1 1 5 3 E 1022,5 20 0 0,0
22.09.2018 23:00:00 23,9 15,4 3 2 6 3 NNW 1022,4 20 0 0,0
22.09.2018 22:00:00 24,5 17,7 4 2 7 4 WNW 1022,4 20 0 0,0
22.09.2018 21:00:00 25,3 18,8 3 2 8 5 WNW 1022,1 20 0 0,0
22.09.2018 20:00:00 26,5 17,5 3 2 10 5 SW 1021,9 20 26 -
22.09.2018 19:00:00 27,8 15,8 4 2 11 6 S 1021,6 20 60 0,0
22.09.2018 18:00:00 27,9 16,5 7 4 14 7 S 1021,7 20 60 0,0
22.09.2018 17:00:00 28,2 18,0 8 4 21 11 S 1021,9 20 60 0,0
22.09.2018 16:00:00 28,3 18,4 9 5 18 10 S 1022,2 20 60 0,0
22.09.2018 15:00:00 27,7 18,7 10 6 19 11 SSE 1022,6 20 60 0,0
22.09.2018 14:00:00 27,8 19,6 11 6 20 11 S 1022,9 20 60 -
22.09.2018 13:00:00 27,8 19,6 11 6 20 11 S 1023,4 20 60 0,0
22.09.2018 12:00:00 28,0 19,8 7 4 13 7 SSE 1022,9 20 60 0,0
22.09.2018 11:00:00 27,7 19,8 4 2 9 5 S 1023,7 20 60 0,0
22.09.2018 10:00:00 26,2 20,1 4 2 10 5 E 1022,4 20 27 0,0
22.09.2018 09:00:00 24,3 19,6 4 2 8 5 ENE 1021,9 13 0 0,0
22.09.2018 08:00:00 23,7 18,8 2 1 8 5 N 1021,2 15 0 -
22.09.2018 07:00:00 24,0 19,3 4 2 9 5 NE 1020,6 20 0 0,0
22.09.2018 06:00:00 24,1 19,2 5 3 9 5 NE 1020,4 17 0 0,0
22.09.2018 05:00:00 24,0 19,1 4 2 10 5 NE 1019,9 20 0 0,0
22.09.2018 04:00:00 23,3 17,3 1 1 7 4 NE 1019,9 20 0 0,0
22.09.2018 03:00:00 23,5 17,5 4 2 10 6 NNE 1020,1 20 0 0,0
22.09.2018 02:00:00 24,1 17,4 5 3 8 5 NE 1020,0 20 0 -
22.09.2018 01:00:00 24,3 17,8 3 2 8 4 NE 1020,0 20 0 0,0
22.09.2018 00:00:00 24,4 16,9 4 2 8 5 ENE 1019,9 20 0 0,0
21.09.2018 23:00:00 24,7 18,6 3 1 4 2 E 1019,4 19 0 0,0
21.09.2018 22:00:00 25,0 18,2 1 1 5 3 S 1019,1 20 0 0,0
21.09.2018 21:00:00 25,2 18,6 2 1 7 4 NNW 1018,5 20 0 0,0
21.09.2018 20:00:00 25,9 19,1 3 2 11 6 WSW 1018,1 20 25 -
21.09.2018 19:00:00 26,9 19,5 5 3 15 8 SSW 1017,8 20 60 0,0
21.09.2018 18:00:00 27,2 19,6 7 4 17 9 SSW 1017,7 20 60 0,0
21.09.2018 17:00:00 27,8 19,6 9 5 21 11 SSW 1018,1 20 60 0,0
21.09.2018 16:00:00 28,0 19,2 9 5 21 11 SSW 1018,2 20 60 0,0
21.09.2018 15:00:00 27,7 20,3 10 5 23 12 SSW 1018,5 20 60 0,0
21.09.2018 14:00:00 27,2 19,8 10 5 21 11 SSW 1019,0 20 60 -
21.09.2018 13:00:00 27,5 19,1 9 5 18 10 S 1019,4 20 60 0,0
21.09.2018 12:00:00 27,4 18,2 7 4 16 8 SW 1020,3 20 60 0,0
21.09.2018 11:00:00 26,9 17,9 5 3 11 6 S 1019,6 17 60 0,0
21.09.2018 10:00:00 26,3 18,7 4 2 7 4 S 1018,7 20 60 0,0
21.09.2018 09:00:00 24,1 17,6 1 1 7 4 E 1018,3 19 40 0,0
21.09.2018 08:00:00 21,8 16,6 6 3 10 5 NNE 1017,8 19 0 -
21.09.2018 07:00:00 21,1 16,7 1 1 5 3 NNE 1017,4 20 0 0,0
21.09.2018 06:00:00 21,1 16,9 1 1 5 3 NNE 1017,1 20 0 0,0
21.09.2018 05:00:00 21,7 16,9 4 2 7 4 NNW 1017,2 20 0 0,0
21.09.2018 04:00:00 21,9 16,4 1 1 8 4 NNW 1017,5 20 0 0,0
21.09.2018 03:00:00 22,2 16,5 4 2 10 5 NW 1017,9 20 0 0,0
21.09.2018 02:00:00 23,0 18,5 3 1 8 4 N 1018,3 20 0 -
21.09.2018 01:00:00 23,4 18,9 4 2 7 4 N 1018,6 20 0 0,0
21.09.2018 00:00:00 23,7 19,0 3 2 8 4 NNW 1018,6 20 0 0,0
20.09.2018 23:00:00 24,5 19,1 3 1 7 4 NNW 1018,7 20 0 0,0
20.09.2018 22:00:00 24,8 19,0 2 1 7 4 W 1018,6 20 0 0,0
20.09.2018 21:00:00 25,2 19,1 5 3 11 6 W 1018,4 20 0 0,0
20.09.2018 20:00:00 25,8 19,0 4 2 13 7 SW 1017,9 20 14 -
20.09.2018 19:00:00 26,5 18,9 7 4 15 8 SSE 1018,2 20 60 0,0
20.09.2018 18:00:00 27,5 19,3 8 5 21 11 S 1018,3 20 60 0,0
20.09.2018 17:00:00 27,9 19,4 8 5 20 11 SSE 1018,8 20 60 0,0
20.09.2018 16:00:00 27,8 19,6 10 5 19 11 SSE 1019,2 19 60 0,0
20.09.2018 15:00:00 27,7 19,0 10 5 21 11 SSE 1019,6 20 60 0,0
20.09.2018 14:00:00 27,7 19,0 11 6 24 13 SSE 1020,1 20 60 -
20.09.2018 13:00:00 28,0 18,1 10 5 19 10 S 1020,7 20 60 0,0
20.09.2018 12:00:00 27,8 18,5 11 6 21 11 ESE 1020,2 20 60 0,0
20.09.2018 11:00:00 28,2 18,3 5 3 14 8 S 1020,6 20 60 0,0
20.09.2018 10:00:00 26,4 19,1 3 2 9 5 WNW 1020,6 20 42 0,0
20.09.2018 09:00:00 24,2 18,8 3 1 8 4 N 1020,4 14 0 0,0
20.09.2018 08:00:00 24,2 18,8 3 2 6 3 N 1020,1 20 0 -
20.09.2018 07:00:00 24,2 18,8 3 1 5 3 E 1019,9 20 0 0,0
20.09.2018 06:00:00 24,2 19,5 3 2 5 3 E 1019,7 20 0 0,0
20.09.2018 05:00:00 24,0 20,1 5 3 10 5 ENE 1019,7 19 0 0,0
20.09.2018 04:00:00 23,5 19,8 3 2 7 4 ENE 1020,0 16 0 0,0
20.09.2018 03:00:00 24,0 20,1 2 1 7 4 NW 1020,5 19 0 0,0
20.09.2018 02:00:00 24,3 20,2 4 2 5 3 NNW 1020,9 20 0 -
20.09.2018 01:00:00 24,6 20,3 4 2 8 5 E 1021,3 20 0 0,0
20.09.2018 00:00:00 25,0 20,5 4 2 7 4 E 1021,4 20 0 0,0
19.09.2018 23:00:00 25,3 20,5 4 2 8 4 ENE 1021,3 20 0 0,0
19.09.2018 22:00:00 25,3 20,5 2 1 8 5 SE 1020,7 20 0 0,0
19.09.2018 21:00:00 25,4 20,4 5 3 10 5 ESE 1020,2 20 0 0,0
19.09.2018 20:00:00 25,6 20,4 4 2 13 7 SSE 1019,7 20 1 -
19.09.2018 19:00:00 26,3 20,4 5 3 15 8 S 1019,6 20 6 0,0
19.09.2018 18:00:00 26,4 20,3 7 4 15 8 SSE 1019,6 20 0 0,0
19.09.2018 17:00:00 27,4 20,3 8 4 17 9 SSE 1019,7 20 19 0,0
19.09.2018 16:00:00 27,0 20,1 9 5 22 12 S 1019,8 20 10 0,0
19.09.2018 15:00:00 27,2 20,1 10 6 22 12 SSE 1020,1 20 52 0,0
19.09.2018 14:00:00 28,1 20,1 11 6 23 13 SE 1020,4 20 60 -
19.09.2018 13:00:00 27,7 19,5 12 6 22 12 SSE 1020,7 20 60 0,0
19.09.2018 12:00:00 27,6 20,2 10 5 19 11 SSE 1020,0 16 60 0,0
19.09.2018 11:00:00 27,5 20,1 9 5 16 8 S 1019,9 20 60 0,0
19.09.2018 10:00:00 26,9 20,7 4 2 8 4 W 1019,4 20 60 0,0
19.09.2018 09:00:00 24,6 20,1 3 2 6 3 N 1018,9 19 28 0,0
19.09.2018 08:00:00 23,7 19,6 3 2 6 4 NNW 1018,4 16 0 -
19.09.2018 07:00:00 24,2 20,1 2 1 8 4 N 1018,1 16 0 0,0
19.09.2018 06:00:00 24,5 20,6 3 1 6 4 NNE 1017,8 20 0 0,0
19.09.2018 05:00:00 24,4 20,5 4 2 8 4 WNW 1017,6 19 0 0,0
19.09.2018 04:00:00 24,7 20,8 4 2 6 4 WNW 1017,8 20 0 0,0
19.09.2018 03:00:00 25,1 20,8 1 1 7 4 W 1018,2 20 0 0,0
19.09.2018 02:00:00 25,2 20,7 2 1 7 4 ENE 1018,4 20 0 -
19.09.2018 01:00:00 25,4 20,9 4 2 8 4 SE 1018,6 20 0 0,0
19.09.2018 00:00:00 25,4 20,9 4 2 8 5 SSE 1018,3 20 0 0,0
18.09.2018 23:00:00 25,4 20,9 5 3 13 7 SE 1018,0 20 0 0,0
18.09.2018 22:00:00 25,7 20,9 7 4 14 7 SE 1017,8 20 0 0,0
18.09.2018 21:00:00 25,6 20,9 5 3 12 7 ESE 1016,7 20 0 0,0
18.09.2018 20:00:00 25,9 20,9 7 4 17 9 SE 1016,3 20 0 -
18.09.2018 19:00:00 26,4 20,9 9 5 17 9 SSE 1015,6 20 28 0,0
18.09.2018 18:00:00 26,8 21,1 8 5 17 9 SSE 1015,4 20 13 0,0
18.09.2018 17:00:00 27,0 20,8 6 3 19 11 S 1015,9 20 4 0,0
18.09.2018 16:00:00 29,1 19,1 8 4 18 10 S 1015,3 20 60 0,0
18.09.2018 15:00:00 29,3 19,6 10 5 21 11 SSW 1014,6 20 60 0,0
18.09.2018 14:00:00 29,4 18,8 9 5 18 10 S 1016,6 20 60 -
18.09.2018 13:00:00 29,0 18,2 10 5 22 12 SSE 1015,3 20 60 0,0
18.09.2018 12:00:00 28,7 17,9 13 7 22 12 SE 1016,2 19 60 0,0
18.09.2018 11:00:00 28,1 17,9 6 3 13 7 SW 1016,2 20 60 0,0
18.09.2018 10:00:00 27,5 17,9 2 1 6 3 SSE 1015,8 20 60 0,0
18.09.2018 09:00:00 24,3 18,2 2 1 7 4 NNE 1015,4 18 37 0,0
18.09.2018 08:00:00 23,0 17,9 3 2 9 5 E 1014,9 16 0 -
18.09.2018 07:00:00 22,9 18,2 6 3 9 5 NE 1014,6 19 0 0,0
18.09.2018 06:00:00 22,7 18,0 0 0 7 4 N 1014,6 20 0 0,0
18.09.2018 05:00:00 23,0 18,5 5 3 8 5 NE 1014,2 20 0 0,0
18.09.2018 04:00:00 23,4 18,7 4 2 8 4 ENE 1014,1 18 0 0,0
18.09.2018 03:00:00 23,4 18,9 2 1 9 5 E 1014,5 20 0 0,0
18.09.2018 02:00:00 23,6 19,6 2 1 7 4 W 1015,1 20 0 -
18.09.2018 01:00:00 24,2 19,5 1 1 6 3 NW 1015,2 19 0 0,0
18.09.2018 00:00:00 24,4 19,5 2 1 8 4 NNW 1015,7 20 0 0,0
17.09.2018 23:00:00 25,1 19,7 5 3 9 5 E 1015,9 20 0 0,0
17.09.2018 22:00:00 25,6 19,7 6 3 23 12 ENE 1015,9 20 0 0,0
17.09.2018 21:00:00 25,6 20,9 12 6 22 12 E 1015,2 20 0 0,0
17.09.2018 20:00:00 25,9 20,5 13 7 22 12 E 1015,4 20 0 -
17.09.2018 19:00:00 26,6 20,5 13 7 31 17 ESE 1015,4 20 33 0,0
17.09.2018 18:00:00 27,7 20,0 14 8 30 16 ESE 1015,3 20 60 0,0
17.09.2018 17:00:00 28,6 19,5 18 10 29 16 ESE 1015,6 20 60 0,0
17.09.2018 16:00:00 29,1 19,4 14 8 34 18 ESE 1016,3 20 47 0,0
17.09.2018 15:00:00 28,7 19,1 18 10 35 19 ESE 1017,0 20 42 0,0
17.09.2018 14:00:00 27,7 18,7 18 10 36 20 E 1017,7 20 2 -
17.09.2018 13:00:00 27,9 18,8 16 8 29 16 E 1017,9 20 2 0,0
17.09.2018 12:00:00 27,1 18,4 18 10 33 18 E 1018,8 20 5 0,0
17.09.2018 11:00:00 26,7 18,5 16 9 27 15 E 1018,6 20 8 0,0
17.09.2018 10:00:00 25,6 19,0 9 5 17 9 ENE 1018,6 20 0 0,0
17.09.2018 09:00:00 24,6 18,3 1 1 12 7 S 1018,4 20 3 0,0
17.09.2018 08:00:00 24,0 18,2 8 4 17 9 W 1017,5 20 0 -
17.09.2018 07:00:00 23,8 18,2 3 1 8 4 SSW 1016,8 20 0 0,0
17.09.2018 06:00:00 24,4 18,8 4 2 14 8 NNE 1017,2 20 0 0,0
17.09.2018 05:00:00 24,0 18,4 3 1 8 4 WNW 1018,3 20 0 0,0
17.09.2018 04:00:00 24,1 18,3 2 1 10 5 N 1017,9 20 0 0,0
17.09.2018 03:00:00 24,7 18,2 4 2 14 8 NNW 1018,9 20 0 0,0

tt = Température de l'air
td = dewpoint
ff = Vitesse du vent
fx = gusts
dd = Direction du vent
ppp = reduced air pressure
vv = visibility
sd = Ensoleillement
rr = Quantités de précipitations

stations d'obs. à proximité